Simultaneous Nadir Overpasses (SNOs) Predictions

Prediction of SNOs between METOP-A and TERRA Satellite Orbit:

Table of predicted SNOs for the next 14.0 days since TLE Epoch: 3/21/2020
Index Date (METOP-A) Time (METOP-A) Lat,Lon (METOP-A) SZA (METOP-A ) Date (TERRA) Time (TERRA) Lat,Lon (TERRA) SZA (TERRA ) Distance(km) Time Diff (sec)
1 03/23/2020 02:38:53 -81.43, 9.82 96.93 03/23/2020 02:40:04 -81.43, 9.84 96.90 0.72 71
2 03/23/2020 03:29:33 81.42, 177.58 83.10 03/23/2020 03:29:30 81.43, 177.57 83.11 0.83 3
3 03/25/2020 22:13:16 -81.43, 76.14 98.01 03/25/2020 22:14:18 -81.43, 76.27 97.98 2.18 62
4 03/25/2020 23:03:56 81.42,-116.13 82.02 03/25/2020 23:03:44 81.43,-116.04 82.02 1.53 12
5 03/28/2020 17:47:38 -81.42, 142.85 99.06 03/28/2020 17:48:32 -81.42, 142.66 99.05 3.12 54
6 03/28/2020 18:38:19 81.43, -49.85 80.93 03/28/2020 18:37:58 81.42, -49.67 80.94 2.94 21
7 03/31/2020 13:22:00 -81.43,-150.85 100.13 03/31/2020 13:22:45 -81.42,-150.97 100.12 2.09 45
8 03/31/2020 14:12:40 81.42, 16.81 79.90 03/31/2020 14:12:11 81.42, 16.67 79.87 2.35 29
9 04/03/2020 08:56:23 -81.43, -84.56 101.19 04/03/2020 08:56:59 -81.41, -84.62 101.19 1.76 36




NCC Satellite Simultaneous Nadir Overpasses (SNOs) Prediction Service
